EW7175 Weather Reports


Display with metric or nautical units.
time (UTC)temp
F
wind
direction
speed
MPH
gust
MPH
rain 1hr
in
rain 24hr
in
rain mn
in
humidity
%
barometer
mb
20260831171541 94 17 0.0 0.0 0.00 0.00 0.00 58 1014.8
20260831170040 93 296 0.0 0.0 0.00 0.00 0.00 60 1014.9
20260831164536 93 351 0.0 0.0 0.00 0.00 0.00 60 1015.1
20260831163034 92 61 0.0 0.0 0.00 0.00 0.00 64 1015.1
20260831161531 91 25 0.0 0.0 0.00 0.00 0.00 65 1015.1
20260831160040 90 176 0.0 0.0 0.00 0.00 0.00 67 1015.2
20260831154523 90 177 0.0 0.0 0.00 0.00 0.00 64 1015.2
20260831153044 89 315 0.0 0.0 0.00 0.00 0.00 71 1015.0
20260831151518 87 315 0.0 0.0 0.00 0.00 0.00 73 1015.0
20260831150014 86 30 0.0 0.0 0.00 0.00 0.00 73 1015.0
20260831144510 84 10 0.0 0.0 0.00 0.00 0.00 80 1014.9
20260831143007 84 19 0.0 0.0 0.00 0.00 0.00 83 1014.8
20260831141513 83 23 0.0 0.0 0.00 0.00 0.00 86 1014.8
20260831140004 82 22 0.0 0.0 0.00 0.00 0.00 88 1014.6
20260831134502 81 26 0.0 0.0 0.00 0.00 0.00 89 1014.5
20260831133101 80 26 0.0 0.0 0.00 0.00 0.00 91 1014.5
20260831131603 79 194 0.0 0.0 0.00 0.00 0.00 94 1014.4
20260831130112 78 193 0.0 0.0 0.00 0.00 0.00 95 1014.3
20260831124600 77 193 0.0 0.0 0.00 0.00 0.00 95 1014.2
20260831123055 77 193 0.0 0.0 0.00 0.00 0.00 95 1014.0
20260831121552 77 193 0.0 0.0 0.00 0.00 0.00 95 1013.7
20260831120140 77 193 0.0 0.0 0.00 0.00 0.00 95 1013.5
20260831114549 77 193 0.0 0.0 0.00 0.00 0.00 94 1013.3
20260831113046 77 193 0.0 0.0 0.00 0.00 0.00 94 1013.3
20260831111548 77 193 0.0 0.0 0.00 0.00 0.00 94 1013.3
20260831110038 77 193 0.0 0.0 0.00 0.00 0.00 94 1013.3
20260831104540 77 193 0.0 0.0 0.00 0.00 0.00 94 1013.2
20260831103043 78 193 0.0 0.0 0.00 0.00 0.00 94 1013.3
20260831101536 78 193 0.0 0.0 0.00 0.00 0.00 93 1013.3
20260831100042 78 193 0.0 0.0 0.00 0.00 0.00 93 1013.4
20260831094532 78 193 0.0 0.0 0.00 0.00 0.00 93 1013.3
20260831093030 78 193 0.0 0.0 0.00 0.00 0.00 92 1013.3
20260831091529 78 193 0.0 0.0 0.00 0.00 0.00 92 1013.2
20260831090028 78 193 0.0 0.0 0.00 0.00 0.00 92 1013.2
20260831084529 79 193 0.0 0.0 0.00 0.00 0.00 91 1013.4
20260831083026 79 193 0.0 0.0 0.00 0.00 0.00 90 1013.3
20260831081533 79 193 0.0 0.0 0.00 0.00 0.00 90 1013.3
20260831080021 80 193 0.0 0.0 0.00 0.00 0.00 89 1013.4
20260831074520 80 193 0.0 0.0 0.00 0.00 0.00 89 1013.4
20260831073023 80 193 0.0 0.0 0.00 0.00 0.00 88 1013.4
20260831071518 80 193 0.0 0.0 0.00 0.00 0.00 88 1013.5
20260831070023 80 193 0.0 0.0 0.00 0.00 0.00 87 1013.4
20260831064516 81 193 0.0 0.0 0.00 0.00 0.00 87 1013.5
20260831063014 81 193 0.0 0.0 0.00 0.00 0.00 86 1013.7
20260831061514 81 193 0.0 0.0 0.00 0.00 0.00 85 1013.7
20260831060015 81 193 0.0 0.0 0.00 0.00 0.00 84 1013.7
20260831054509 82 193 0.0 0.0 0.00 0.00 0.00 83 1013.7
20260831053008 82 193 0.0 0.0 0.00 0.00 0.00 82 1013.7
20260831051505 83 193 0.0 0.0 0.00 0.00 0.00 81 1013.6
20260831050006 83 193 0.0 0.0 0.00 0.00 0.00 80 1013.4
20260831044502 83 138 0.0 0.0 0.00 0.00 0.00 79 1013.4
20260831043002 83 138 0.0 0.0 0.00 0.00 0.00 79 1013.4
20260831041503 84 165 0.0 0.0 0.00 0.00 0.00 77 1013.2
20260831040101 84 161 0.0 0.0 0.00 0.00 0.00 76 1013.2
20260831034600 84 166 0.0 0.0 0.00 0.00 0.00 75 1012.9
20260831033103 85 189 0.0 0.0 0.00 0.00 0.00 74 1012.8
20260831031559 85 170 0.0 0.0 0.00 0.00 0.00 73 1012.8
20260831030058 86 165 0.0 0.0 0.00 0.00 0.00 71 1012.6
20260831024611 86 167 0.0 0.0 0.00 0.00 0.00 70 1012.4
20260831023058 87 179 0.0 0.0 0.00 0.00 0.00 68 1012.2
20260831021600 87 182 0.0 0.0 0.00 0.00 0.00 66 1011.9
20260831020057 88 150 0.0 0.0 0.00 0.00 0.00 64 1011.8
20260831014556 89 155 0.0 0.0 0.00 0.00 0.00 62 1011.6
20260831013058 90 176 0.0 0.0 0.00 0.00 0.00 59 1011.6
20260831011557 90 187 0.0 0.0 0.00 0.00 0.00 58 1011.4
20260831010128 91 184 0.0 0.0 0.00 0.00 0.00 57 1011.4
20260831004555 91 178 0.0 0.0 0.00 0.00 0.00 56 1011.3
20260831003054 92 178 0.0 0.0 0.00 0.00 0.00 55 1011.3
20260831001605 93 184 0.0 0.0 0.00 0.00 0.00 52 1011.1
20260831000054 94 202 0.0 0.0 0.00 0.00 0.00 51 1011.1
20260830234553 95 202 0.0 0.0 0.00 0.00 0.00 49 1011.0
20260830233053 96 202 0.0 0.0 0.00 0.00 0.00 49 1011.0
20260830231553 97 116 0.0 0.0 0.00 0.00 0.00 47 1011.0
20260830230054 98 171 0.0 3.0 0.00 0.00 0.00 42 1010.9
20260830224558 99 144 0.0 2.0 0.00 0.00 0.00 40 1010.9
20260830223050 100 141 0.0 0.0 0.00 0.00 0.00 40 1011.0
20260830221549 100 49 0.0 0.0 0.00 0.00 0.00 40 1011.0
20260830220056 100 181 0.0 1.0 0.00 0.00 0.00 39 1011.1
20260830214547 100 169 0.0 0.0 0.00 0.00 0.00 41 1011.2
20260830213040 100 208 0.0 0.0 0.00 0.00 0.00 44 1011.4
20260830211536 100 120 0.0 0.0 0.00 0.00 0.00 43 1011.6
20260830210035 98 199 0.0 0.0 0.00 0.00 0.00 46 1011.8
20260830204533 97 164 0.0 0.0 0.00 0.00 0.00 47 1012.0
20260830203030 98 153 0.0 0.0 0.00 0.00 0.00 45 1012.2
20260830201529 97 231 0.0 0.0 0.00 0.00 0.00 48 1012.5
20260830200026 98 174 1.0 4.0 0.00 0.00 0.00 47 1012.7
20260830194524 98 31 1.0 4.0 0.00 0.00 0.00 47 1013.0
20260830193022 99 40 0.0 0.0 0.00 0.00 0.00 47 1013.2
20260830191516 98 65 0.0 0.0 0.00 0.00 0.00 49 1013.5
20260830190020 97 62 0.0 0.0 0.00 0.00 0.00 48 1013.7
20260830184515 97 227 0.0 0.0 0.00 0.01 0.00 49 1013.8
20260830183013 96 313 0.0 0.0 0.00 0.01 0.00 51 1014.1
20260830181509 95 172 0.0 0.0 0.00 0.01 0.00 53 1014.4
20260830180007 94 33 0.0 0.0 0.00 0.01 0.00 56 1014.7
20260830174512 95 314 0.0 0.0 0.00 0.01 0.00 55 1014.9
20260830173002 93 188 0.0 0.0 0.00 0.01 0.00 59 1015.2